GFSCGP_prec_cthk_273.txt.gz
RH
12 14 15 11 11 12 13 14 15 18 18 18 20 19 19 17 17 18 16 15 12 9 14 23 33 18 14 16 20 27 28 25 22 21 19 18 18 17 19 23 27 33 40 42
13 14 13 12 12 12 13 14 13 15 17 18 19 19 18 17 17 17 16 13 12 10 16 26 28 16 13 18 24 27 28 24 23 23 21 20 19 19 23 27 32 39 43 41
14 13 12 12 13 13 14 13 12 13 15 19 19 19 17 16 17 16 16 13 11 11 17 28 22 14 15 21 25 28 26 23 23 23 22 19 19 21 25 30 35 40 42 37
11 11 12 12 13 13 13 14 14 15 17 18 18 20 18 17 16 15 15 12 11 11 19 27 19 14 19 24 25 27 25 22 23 24 20 20 24 26 29 33 38 42 37 33
12 12 13 13 13 13 13 14 16 17 20 23 21 22 18 17 17 16 14 11 10 12 22 23 18 16 23 23 26 26 23 22 23 22 21 24 25 30 30 36 40 39 33 34
13 12 12 12 13 13 15 17 20 23 24 23 21 21 19 18 15 14 12 11 9 13 22 20 16 18 23 24 25 25 22 21 21 19 21 24 29 32 33 39 41 40 38 37
14 14 14 14 14 14 15 18 19 14 20 20 22 19 18 15 14 13 11 9 8 15 21 18 15 20 22 25 24 24 20 19 18 19 20 24 30 34 35 40 42 44 42 44
16 15 15 13 13 13 15 17 20 13 17 20 19 18 14 13 13 11 9 8 9 16 19 18 15 21 23 25 24 22 19 17 18 19 20 23 27 33 37 39 43 44 44 49
17 16 15 14 13 14 15 17 16 20 24 28 23 18 15 13 13 11 9 8 9 15 18 17 16 20 22 23 23 20 17 16 17 18 21 24 25 28 35 38 42 44 46 52
14 14 16 16 15 14 14 16 17 23 21 18 19 17 17 14 13 12 10 8 9 14 17 16 17 20 20 21 22 18 15 15 17 18 20 22 24 26 30 35 40 43 45 50
13 13 16 17 16 16 15 16 20 21 24 29 24 18 14 13 13 12 10 8 8 13 15 15 16 18 19 21 21 17 15 15 16 17 19 21 22 25 27 32 37 42 40 42
13 15 18 17 17 17 17 17 18 31 24 32 37 24 14 12 12 11 10 8 8 12 14 14 15 18 17 20 21 16 14 15 16 16 17 18 20 23 25 28 32 36 37 38
14 16 16 15 19 19 19 18 20 25 30 31 34 21 15 13 12 11 10 8 7 11 14 14 15 18 17 19 21 16 14 14 15 16 16 17 19 21 23 25 28 31 32 33
16 18 15 18 14 21 19 19 20 20 32 32 28 17 17 13 13 11 10 9 8 10 14 12 13 16 17 18 20 18 15 14 15 15 16 17 18 20 21 24 26 26 28 31
18 17 19 19 20 21 20 20 21 21 19 22 18 20 18 16 12 9 9 8 8 9 14 11 12 15 16 19 19 19 16 14 14 15 15 16 16 19 20 22 23 25 26 28
21 19 20 18 17 20 21 21 20 20 18 22 21 18 15 15 12 9 8 8 8 8 12 10 11 14 15 18 18 18 17 15 14 14 14 15 16 17 17 19 21 24 25 27
23 23 24 19 23 20 20 18 19 18 16 16 19 15 14 15 13 9 7 7 7 7 11 10 9 12 14 18 18 18 18 17 15 15 15 16 16 16 17 17 20 22 24 26
26 27 31 31 21 22 13 14 15 15 15 15 16 16 15 14 13 9 7 5 6 7 9 11 9 11 13 16 17 18 17 18 17 17 17 19 18 17 18 19 20 22 25 27
27 30 35 33 25 18 12 13 15 15 12 13 14 16 15 15 14 10 7 5 5 6 8 11 10 10 12 15 17 18 16 17 18 19 20 20 20 19 19 20 21 23 25 26
31 30 33 39 27 20 10 13 12 12 14 11 12 15 15 16 16 13 6 6 5 6 8 11 10 10 11 13 17 18 17 16 17 19 20 19 18 19 20 21 21 23 25 26
36 40 36 39 34 21 14 12 13 13 12 11 11 14 15 16 15 11 7 7 5 6 7 11 12 10 9 12 15 18 19 17 16 17 17 18 19 19 20 21 22 23 25 26
33 38 39 40 38 23 14 13 14 12 12 11 11 12 14 14 15 12 9 7 6 6 7 9 14 12 10 11 14 17 19 20 18 17 17 18 18 19 21 22 23 24 26 27
33 29 33 31 23 15 13 11 11 11 12 12 11 11 13 14 14 14 11 8 7 6 6 7 13 17 12 11 12 15 18 20 21 20 18 19 20 20 20 22 24 25 27 28
33 31 30 25 19 18 15 14 13 13 13 13 12 13 12 13 14 15 13 10 8 7 7 7 11 18 15 10 11 14 16 19 22 22 22 21 21 22 23 24 25 26 28 29
36 35 30 29 23 21 19 16 15 14 14 14 13 13 14 12 14 14 14 13 10 8 8 7 9 14 20 14 11 13 15 17 20 23 24 24 23 23 24 25 26 27 29 31
36 35 33 28 25 24 20 18 16 15 15 15 15 15 15 13 13 14 14 14 12 10 8 8 9 12 17 21 14 12 14 15 18 21 23 25 25 25 25 25 27 28 30 32

GFSCGP_prec_cthk_276.txt.gz
RH
12 14 15 13 13 13 14 15 15 17 18 18 20 18 17 16 15 16 16 16 13 11 13 20 25 18 13 16 22 23 25 22 20 19 19 16 16 18 21 24 28 30 32 32
13 14 13 13 13 13 14 15 14 15 17 18 20 19 17 17 16 16 16 15 13 11 15 20 22 17 13 19 21 24 24 21 19 21 18 17 18 22 24 27 30 31 29 34
14 13 13 13 13 13 14 14 13 12 16 19 19 18 16 16 16 16 15 14 12 12 16 18 20 15 16 20 22 23 22 19 20 18 17 17 20 25 25 29 31 31 30 37
12 12 12 13 14 14 12 14 14 15 17 20 18 17 16 15 16 15 14 12 12 12 15 17 19 15 18 21 21 23 21 18 17 16 16 18 22 26 27 30 33 32 33 39
12 12 12 13 14 13 13 14 17 17 19 22 20 21 16 16 16 15 12 11 11 12 14 16 17 16 19 21 21 21 18 17 16 16 16 18 22 26 29 32 34 34 35 38
13 13 12 13 13 14 15 17 20 23 24 21 21 20 16 17 15 13 11 10 10 11 14 16 17 16 20 20 21 21 17 15 15 16 17 19 22 26 28 32 35 36 38 42
14 14 13 13 14 14 15 17 19 15 18 17 22 20 16 14 14 13 10 9 9 10 14 15 16 16 20 20 20 19 15 13 14 15 17 19 22 25 28 33 34 34 36 42
16 14 15 14 13 13 15 17 20 14 17 18 19 17 12 12 13 11 9 8 8 10 14 14 15 15 19 19 19 16 14 13 14 15 17 19 22 23 26 31 33 33 33 40
16 16 14 14 14 14 15 16 16 21 25 26 20 17 14 12 13 11 9 8 8 10 13 12 15 15 18 18 19 16 14 13 13 14 16 18 20 22 23 25 28 30 31 36
14 13 15 15 15 14 15 15 17 22 21 17 18 17 15 13 13 12 9 8 8 10 12 12 14 14 16 17 18 15 13 13 13 14 15 17 18 20 21 23 25 27 28 32
13 13 15 16 17 16 15 15 20 21 24 30 24 17 14 12 13 12 9 7 7 8 10 10 13 14 15 16 18 14 12 13 13 15 15 16 18 19 21 22 24 25 26 29
14 15 16 16 17 17 16 16 19 30 23 33 37 22 14 12 12 12 10 7 6 7 10 10 12 14 14 15 18 15 12 12 13 14 14 15 16 18 20 21 23 25 26 28
16 17 16 14 18 19 18 18 21 25 28 30 33 20 14 13 12 12 10 8 6 7 10 9 11 13 14 14 16 16 12 12 12 12 13 14 15 17 18 20 23 24 26 28
19 19 16 18 13 20 19 19 22 20 32 31 26 17 15 14 13 12 10 8 7 6 8 9 10 12 13 14 15 16 13 11 11 12 13 13 15 16 17 19 21 23 24 26
22 20 20 19 18 19 19 20 23 22 18 20 17 20 14 14 14 11 9 8 7 7 8 9 9 11 12 13 15 15 13 12 11 12 13 14 15 16 17 18 20 22 23 25
26 22 22 19 18 21 21 21 21 21 19 19 18 18 15 14 14 11 8 7 7 7 7 8 8 10 11 12 14 15 15 13 12 13 15 15 16 16 16 18 19 21 23 25
27 27 26 21 24 23 19 18 20 19 17 16 18 14 14 14 14 12 8 6 6 6 7 8 7 8 10 12 14 14 15 15 14 14 16 18 18 17 17 19 20 22 23 25
30 30 34 33 23 25 15 14 14 16 15 14 13 13 15 14 13 13 10 7 5 6 7 8 7 8 10 11 14 15 14 15 15 16 17 19 19 18 18 19 20 22 23 25
31 34 38 37 28 21 14 15 15 15 12 12 12 12 14 14 14 13 11 8 5 5 6 8 9 8 9 11 13 14 15 14 16 17 19 20 19 18 19 19 20 22 24 25
36 35 38 42 32 25 16 14 13 14 14 9 11 12 13 14 16 16 11 8 6 5 5 7 10 9 9 10 12 15 15 14 14 16 18 19 18 18 19 20 21 23 25 26
41 46 41 43 39 26 19 17 16 14 13 10 11 12 12 13 14 14 11 9 7 6 6 6 9 10 9 10 12 14 16 16 15 15 15 16 17 17 18 19 21 23 25 27
42 43 45 45 41 28 19 18 16 14 12 12 12 11 12 12 13 14 13 11 9 7 6 7 8 11 10 10 11 13 16 19 18 16 16 16 17 17 18 19 21 23 25 27
45 37 40 38 30 23 19 16 14 14 14 14 13 12 12 12 12 13 14 13 12 8 7 7 8 11 13 10 10 12 15 18 20 20 19 18 18 19 19 20 22 24 26 28
45 43 35 33 27 26 23 21 19 18 17 15 14 14 13 13 12 12 13 13 13 11 8 8 8 9 13 15 10 10 13 16 19 21 22 22 22 22 22 23 25 26 28 30
51 49 40 33 30 31 28 26 23 21 19 17 16 15 15 14 14 14 13 13 13 13 12 10 9 9 11 17 17 11 11 13 16 19 22 24 25 25 25 26 27 28 30 32
51 52 51 37 32 34 31 29 27 24 22 19 18 17 17 16 16 15 12 12 12 13 13 12 10 9 10 14 18 18 13 12 14 16 18 22 25 27 28 28 29 31 32 35

GFSCGP_prec_cthk_279.txt.gz
RH
12 13 14 13 14 14 14 15 15 16 17 17 18 17 16 15 15 15 14 15 15 12 13 14 16 16 14 15 18 18 19 17 16 14 13 13 16 20 22 24 25 25 25 30
13 14 12 13 14 14 15 15 15 15 17 17 18 17 16 16 15 15 14 14 14 13 13 13 14 16 13 16 17 18 18 16 15 13 13 14 18 20 23 26 26 26 28 32
14 13 13 14 14 14 14 14 14 12 15 18 17 15 15 14 15 15 13 13 13 13 13 11 14 16 14 16 16 18 17 14 13 13 13 15 19 21 24 25 25 26 29 32
12 12 13 14 14 14 13 14 15 15 16 17 17 14 15 14 14 14 12 12 12 12 12 10 14 14 13 15 16 17 15 13 12 13 13 14 17 20 23 25 25 25 27 30
12 12 12 14 15 14 13 15 17 18 18 20 18 16 13 15 14 13 11 11 11 11 11 10 14 13 14 15 16 17 14 11 12 12 13 15 16 18 21 24 24 25 27 31
13 12 12 13 14 14 15 17 20 23 22 16 20 17 12 14 13 11 10 9 10 11 9 10 13 13 14 14 16 15 13 11 11 12 13 15 16 17 19 21 22 24 26 31
13 13 13 13 14 15 15 16 18 15 18 14 21 18 13 12 13 11 9 8 9 9 8 10 12 12 13 14 15 15 12 11 11 12 13 14 16 17 18 20 21 23 25 29
14 13 14 14 14 14 14 16 18 13 16 17 19 17 11 11 12 11 8 7 8 8 8 10 11 11 12 14 15 14 11 10 11 11 13 14 15 17 19 21 23 25 26 28
15 15 14 13 14 14 15 16 15 19 24 23 17 15 14 12 12 11 8 6 6 7 7 9 10 11 12 14 14 13 11 10 10 11 12 13 15 17 19 21 22 24 27 28
15 13 15 14 14 15 16 16 16 20 21 16 16 15 14 12 12 11 8 6 6 7 7 8 10 10 11 13 14 13 10 10 10 11 12 13 14 16 18 20 22 24 25 27
16 14 14 16 16 17 16 15 18 20 22 23 20 15 12 11 11 11 8 5 5 6 6 7 8 10 11 12 13 12 9 9 10 11 12 13 14 16 18 20 22 23 25 26
16 16 16 15 16 16 16 16 18 29 22 27 30 20 13 12 10 10 10 6 5 6 6 7 8 10 10 10 12 13 10 10 10 11 12 13 14 15 17 19 21 22 24 26
19 18 16 14 17 18 18 18 21 25 26 28 30 19 14 12 11 10 10 8 5 5 6 7 7 9 10 10 11 13 10 10 10 11 12 13 14 15 16 18 20 22 23 25
22 22 19 19 15 18 18 20 23 21 28 28 22 16 16 14 12 11 10 9 7 5 5 6 7 7 9 10 11 12 12 11 11 12 13 13 14 15 16 18 19 21 23 25
27 24 23 21 19 19 18 18 22 24 19 20 15 18 14 15 13 12 10 8 7 6 6 6 6 7 9 10 11 12 12 11 11 11 13 14 15 15 16 17 19 21 23 24
32 28 27 23 22 24 23 22 20 20 19 19 17 15 13 14 13 13 11 9 7 6 6 6 6 6 8 9 10 12 13 12 11 11 12 14 15 16 16 17 18 20 22 24
33 32 30 26 25 24 22 19 20 19 18 16 17 12 13 14 15 14 13 9 6 5 6 6 6 6 7 9 10 11 12 13 12 12 13 14 16 16 16 17 18 20 22 24
32 34 38 35 27 28 18 17 17 17 16 15 13 13 12 12 13 14 13 12 8 6 6 6 7 6 7 9 10 12 13 13 13 13 14 15 16 17 17 18 19 21 23 25
38 36 43 43 32 25 18 19 19 17 13 13 12 12 12 12 13 13 14 13 10 6 5 6 7 8 7 8 10 12 14 14 13 14 15 17 18 17 17 18 20 22 24 26
41 42 42 44 40 31 22 19 20 18 17 11 12 12 12 12 14 13 14 13 12 8 7 6 6 8 8 8 10 12 14 15 14 14 15 17 18 18 18 19 21 23 25 27
46 52 50 46 45 32 25 23 22 21 20 14 12 12 13 13 12 11 13 13 12 11 8 7 7 8 10 8 8 10 13 15 16 15 15 16 17 18 19 20 22 24 27 29
43 51 54 56 51 36 26 26 24 21 17 16 14 13 13 13 12 12 12 12 12 12 10 8 8 8 11 10 9 9 11 14 17 18 17 17 18 19 19 20 22 24 26 29
40 40 47 46 42 35 27 23 23 22 20 19 17 15 14 14 14 14 13 12 12 13 12 10 9 9 10 13 11 10 11 13 15 17 19 19 20 20 21 22 24 25 27 29
36 38 39 40 36 41 36 31 29 26 24 22 20 18 16 15 15 14 14 13 12 12 13 12 11 10 10 12 15 12 12 13 15 16 18 20 22 22 23 24 26 27 29 30
38 38 38 36 37 43 44 37 35 34 30 27 25 21 19 17 16 16 15 15 14 11 12 12 12 11 11 12 13 17 15 13 14 16 18 19 21 23 26 27 29 29 30 32
39 39 41 43 46 50 52 50 38 39 38 34 30 26 23 20 18 17 17 16 14 12 10 12 12 12 11 11 12 16 19 18 16 15 16 17 19 22 25 27 29 30 30 32

GFSCGP_prec_cthk_282.txt.gz
RH
11 12 13 12 14 13 13 13 13 14 16 15 15 14 14 13 13 13 12 12 13 14 12 11 11 12 13 12 13 15 15 13 11 12 13 14 18 19 23 21 19 20 22 24
12 12 12 12 14 14 14 13 13 13 15 14 14 13 12 13 13 13 12 12 12 13 12 12 12 13 13 12 12 15 14 11 10 10 11 12 15 17 19 22 23 22 22 24
12 12 11 13 14 14 14 14 13 12 13 14 14 12 12 12 14 12 11 11 11 11 11 11 11 13 12 13 13 14 12 10 10 10 11 13 17 20 22 23 23 22 23 26
12 11 12 13 14 14 14 14 14 15 14 13 14 10 12 11 11 11 10 9 10 10 11 10 11 13 12 13 12 14 12 10 10 10 12 14 17 19 19 20 20 24 24 28
12 11 12 13 14 14 14 15 16 18 15 15 15 12 10 11 10 9 8 8 9 9 10 10 10 13 12 12 13 13 11 9 10 11 12 14 16 19 19 21 22 23 24 27
12 12 12 13 13 13 15 16 18 19 18 15 15 13 9 10 9 8 7 7 8 8 9 10 10 12 12 11 12 13 11 10 10 11 12 13 15 16 18 20 23 23 26 28
12 12 12 12 13 15 14 15 16 16 17 14 16 14 9 9 10 8 7 6 7 7 8 9 10 11 11 11 12 12 10 9 10 10 11 12 14 15 16 18 21 22 24 26
13 12 13 13 13 14 14 15 15 17 14 15 16 14 11 9 9 9 7 6 6 7 7 8 9 10 10 10 11 10 9 8 9 10 10 11 13 14 16 18 19 20 23 25
14 14 13 13 12 13 15 15 15 15 18 17 15 11 11 9 9 9 7 6 6 6 7 8 8 8 10 10 11 11 9 9 9 9 10 11 12 14 16 17 19 21 22 24
16 14 14 13 13 14 15 15 16 16 27 17 13 14 10 11 9 9 7 6 6 6 6 7 9 8 8 9 11 11 10 8 9 9 10 11 13 14 15 17 19 20 22 23
18 16 17 15 15 14 15 15 16 17 17 18 15 12 12 10 9 9 8 6 5 6 6 7 8 7 8 9 10 11 10 8 8 9 10 11 13 14 15 17 18 20 22 24
19 17 15 15 15 15 14 14 15 20 23 19 24 17 12 12 10 9 9 7 5 6 6 7 7 7 8 8 9 11 10 8 8 9 10 11 12 13 14 16 18 19 21 23
22 19 17 16 17 17 17 16 16 20 21 23 26 15 12 13 12 11 10 9 7 5 6 7 8 7 8 8 9 11 11 8 8 9 10 11 12 12 14 16 17 19 21 23
25 24 21 21 18 19 19 18 18 17 24 22 17 13 13 13 14 12 11 10 9 6 6 6 7 8 7 8 9 10 11 10 9 9 11 11 12 13 15 16 18 20 22 24
29 27 26 24 22 22 20 19 20 21 16 19 14 16 13 13 14 14 12 11 9 8 6 6 7 7 7 8 9 9 11 11 9 10 11 13 14 15 16 17 18 20 22 24
30 30 28 26 26 25 24 21 20 19 18 17 17 15 13 12 12 13 13 13 10 8 7 6 6 6 6 7 8 9 11 11 11 11 12 13 15 17 17 18 20 21 23 24
33 31 31 28 27 28 26 21 21 19 18 16 16 12 12 12 12 12 13 14 12 9 7 6 6 6 6 7 8 10 11 12 12 12 13 14 15 18 18 19 20 22 24 26
32 33 35 33 29 32 23 21 21 20 18 18 15 12 12 12 12 12 12 14 14 11 8 7 6 6 7 7 8 10 11 12 13 13 14 15 16 18 19 19 20 22 24 26
32 34 47 44 33 25 22 24 24 21 18 17 15 13 12 13 12 11 11 13 14 13 10 8 7 7 7 7 8 9 11 12 13 13 14 16 17 19 19 19 20 21 23 26
33 34 40 43 49 38 27 22 23 23 22 19 18 14 13 13 12 12 11 12 14 14 12 9 8 8 8 8 8 9 10 12 13 13 13 15 16 18 18 19 20 21 23 26
35 39 44 37 44 34 32 31 26 26 26 22 20 18 16 14 13 12 11 11 11 13 13 11 10 9 9 10 9 9 11 12 14 15 15 15 15 16 17 19 20 22 24 26
35 46 44 43 50 39 33 37 38 30 25 25 23 21 18 15 14 14 14 12 11 11 13 12 11 10 11 11 12 10 10 13 15 17 18 18 17 18 19 20 22 24 25 27
37 34 39 38 35 36 34 34 34 40 31 28 26 25 23 19 16 16 15 14 13 11 11 13 12 11 11 11 13 14 11 12 14 17 18 20 20 20 21 22 24 26 27 28
32 34 35 37 34 35 39 41 41 37 41 32 31 28 25 23 20 18 16 16 15 15 12 11 12 12 11 11 12 15 16 13 13 15 18 20 22 23 24 25 27 28 29 30
34 35 36 35 35 37 38 39 40 42 44 42 34 31 28 25 24 21 19 18 17 16 15 12 11 12 11 11 12 13 16 18 15 15 16 18 20 22 24 26 27 29 30 31
36 36 37 35 36 38 36 38 39 43 44 46 44 37 35 32 29 27 24 21 20 19 17 13 11 10 11 11 12 12 12 16 18 18 17 17 18 20 22 24 26 28 30 29

GFSCGP_prec_cthk_285.txt.gz
RH
13 12 15 14 13 13 12 13 13 13 15 14 13 12 12 12 11 11 11 10 10 11 11 11 10 11 12 11 13 14 15 14 13 14 14 15 16 17 19 19 20 20 21 22
13 14 12 11 13 13 12 13 14 13 13 12 11 11 10 11 11 10 10 10 9 9 10 11 10 10 11 10 12 14 15 13 12 12 12 13 16 16 17 19 20 21 21 22
12 14 11 12 13 13 13 14 13 12 12 13 12 12 10 10 11 10 9 9 9 8 10 10 10 9 11 11 12 14 14 11 13 10 14 16 16 17 18 20 21 22 22 24
12 12 11 12 13 14 15 13 13 14 14 14 12 12 10 10 10 9 8 8 8 8 9 9 10 9 11 10 12 11 12 10 11 9 11 14 16 17 19 20 20 22 23 24
14 12 12 12 13 13 15 14 15 16 16 15 15 13 12 9 9 8 7 7 7 7 7 8 9 8 10 10 11 12 11 8 8 9 9 11 16 17 18 20 20 22 23 24
14 11 11 12 12 13 14 15 17 17 19 21 15 12 12 8 7 7 6 6 6 7 7 8 9 8 10 10 9 10 10 9 8 8 9 11 12 15 16 18 20 22 23 24
15 12 11 11 12 14 14 15 20 23 23 18 15 13 10 8 7 6 5 5 6 6 7 8 8 8 10 11 10 10 10 9 9 8 9 10 11 13 15 19 20 21 23 25
15 16 13 12 12 13 14 15 17 20 17 15 17 16 12 8 8 7 6 5 6 6 7 7 7 8 10 10 11 12 12 11 9 10 10 10 11 13 14 18 16 18 22 25
16 16 13 12 11 12 15 16 15 15 16 15 14 13 13 10 8 8 7 5 6 6 6 6 7 8 9 10 11 11 11 10 10 10 10 10 11 12 13 14 16 19 21 25
17 17 16 14 12 12 13 14 17 19 30 21 13 12 12 13 10 8 7 6 6 6 6 6 6 8 9 9 11 12 12 10 9 9 9 10 11 11 13 14 16 20 22 24
19 18 19 17 16 14 13 14 15 17 16 21 18 14 12 12 12 10 9 7 5 5 6 6 6 7 9 9 10 11 10 9 8 8 9 10 10 12 13 15 18 21 22 25
19 19 18 17 16 15 14 13 13 20 26 18 23 19 12 11 13 13 11 9 7 5 6 6 6 7 8 9 10 10 11 11 9 10 10 11 11 12 14 16 20 20 22 24
22 21 20 22 20 18 16 16 15 17 19 22 26 19 14 12 13 13 14 13 10 8 5 6 6 7 8 9 10 11 12 12 11 9 10 11 12 14 15 17 18 20 21 23
27 25 23 24 24 22 22 20 18 17 21 21 18 15 15 16 16 14 14 15 13 10 8 6 6 7 8 9 9 10 11 12 11 9 10 11 12 14 15 17 18 19 21 23
27 27 27 26 25 25 24 22 22 22 17 18 14 15 14 14 14 14 14 14 15 13 10 8 6 7 8 9 9 10 10 11 11 10 10 11 13 14 15 17 17 19 20 22
27 27 27 26 26 26 25 25 24 22 21 19 17 15 14 14 13 13 13 13 13 14 12 10 8 7 8 9 10 10 11 10 12 11 11 12 13 14 16 17 18 19 20 22
28 29 29 28 29 29 29 24 23 23 22 21 20 16 15 13 13 13 13 12 12 15 13 11 9 8 8 9 9 9 10 11 11 12 11 11 12 14 16 17 17 19 21 23
28 28 32 33 32 36 24 24 23 23 23 23 21 18 16 14 13 12 12 12 12 13 15 13 11 9 8 9 9 8 9 10 12 12 12 13 13 14 16 18 18 19 21 22
28 29 45 38 33 29 27 28 28 25 23 22 21 20 18 15 13 12 11 12 12 12 15 15 12 11 10 9 9 9 8 10 12 13 14 14 15 16 17 19 19 20 21 23
29 29 36 38 46 35 28 24 27 30 30 21 22 22 19 17 16 15 12 11 11 12 14 15 14 12 11 11 10 10 9 10 11 14 15 15 15 16 17 19 20 21 22 24
32 33 42 37 43 31 27 27 28 31 32 31 26 24 24 21 18 15 13 12 12 11 11 12 14 13 12 12 11 12 12 10 11 14 16 17 17 17 18 19 21 22 24 25
34 42 40 39 45 39 26 28 29 28 28 32 34 32 26 25 23 20 17 15 14 13 11 10 12 13 12 12 12 12 13 13 12 14 16 18 19 19 20 20 22 24 25 27
34 30 36 34 31 29 27 24 25 25 26 29 32 35 38 28 26 24 22 18 16 16 15 12 11 11 12 12 12 12 13 15 14 14 15 17 19 21 21 22 23 25 27 28
36 34 33 32 30 30 30 30 30 31 30 30 30 32 36 38 30 28 26 24 20 18 17 16 15 12 11 11 11 11 12 14 16 15 14 16 18 20 22 23 24 25 27 29
39 38 33 32 33 32 31 31 31 31 32 34 35 35 33 35 38 34 31 29 27 24 20 19 18 16 13 11 11 11 11 12 14 16 16 16 16 18 20 23 24 25 26 28
40 35 33 31 33 33 31 32 30 33 34 34 35 35 36 37 40 43 37 33 30 27 25 23 20 18 14 12 10 9 10 11 12 14 16 16 17 18 19 21 23 24 25 27

GFSCGP_prec_cthk_288.txt.gz
RH
14 12 18 16 14 13 13 13 14 16 14 13 12 12 11 10 10 9 9 8 8 9 10 10 9 9 9 8 8 10 10 8 7 8 10 10 12 14 13 13 14 14 14 16
14 17 15 12 11 13 14 14 16 16 14 13 11 10 10 10 10 9 8 8 8 8 9 9 9 9 8 9 9 9 10 8 6 7 8 9 11 13 14 15 14 14 15 16
14 13 13 11 12 13 14 15 15 14 14 13 14 14 10 9 10 9 8 8 8 7 7 7 8 8 8 9 8 9 10 8 6 6 7 9 12 14 15 14 14 15 17 18
14 12 11 11 12 13 15 15 14 15 17 19 15 18 13 9 9 9 8 7 7 7 7 7 8 9 8 9 9 8 9 8 7 7 8 10 11 13 13 14 15 17 18 18
16 14 12 12 12 12 14 14 14 16 18 19 17 17 14 12 10 8 8 7 6 6 7 7 8 8 7 9 8 8 9 8 6 7 7 9 11 12 13 15 15 17 18 20
15 13 12 11 11 11 12 14 16 20 20 27 22 16 16 13 8 7 7 6 6 6 6 7 7 7 7 9 8 8 8 8 6 7 8 9 10 10 11 13 15 17 18 21
17 15 12 11 11 13 13 16 27 34 32 30 18 17 15 11 8 6 6 5 5 6 6 6 6 7 7 8 7 7 8 8 7 7 8 8 9 10 11 13 15 16 18 21
17 20 17 12 11 13 13 14 21 25 29 23 16 19 16 13 9 7 6 5 5 6 6 6 6 6 6 7 7 7 8 8 7 7 8 8 9 10 11 13 16 17 19 21
18 20 15 14 12 11 14 16 15 17 16 22 20 17 14 13 12 10 8 6 5 5 6 6 6 6 6 6 6 6 8 9 8 7 8 8 9 10 12 13 15 17 19 21
19 19 17 16 15 13 12 14 18 22 36 31 20 17 18 15 12 13 12 9 7 5 6 5 5 6 7 7 7 7 8 9 9 7 7 8 9 10 12 13 15 17 19 21
19 19 21 19 18 19 16 15 14 15 19 30 29 22 14 15 12 12 13 13 11 8 6 6 5 6 6 7 8 7 8 9 9 7 7 8 9 10 12 13 15 16 18 20
20 21 22 20 19 17 16 16 15 31 25 21 35 25 14 13 12 12 13 13 14 13 9 6 6 6 6 7 8 7 7 8 9 8 7 8 9 10 11 13 14 16 18 20
22 22 24 25 25 21 19 17 16 20 24 28 37 25 13 14 15 15 15 14 13 14 14 10 7 7 7 7 8 8 8 8 9 10 8 9 9 10 11 13 14 16 18 20
22 24 24 29 27 26 25 25 22 22 38 32 25 16 14 16 17 16 15 14 14 13 14 13 10 7 7 8 8 7 8 9 10 11 10 9 10 11 12 13 15 16 18 20
25 27 26 25 25 25 26 26 27 27 23 24 18 19 16 16 15 14 13 14 14 13 13 14 13 10 8 8 9 9 8 9 10 11 11 10 10 11 13 14 15 16 18 21
26 29 26 25 26 26 24 24 24 26 23 23 22 20 18 16 15 14 13 12 13 13 12 13 14 12 11 8 8 9 8 8 10 11 11 11 11 12 13 14 16 17 19 21
29 30 30 30 26 26 28 22 23 23 23 24 25 21 20 18 16 14 14 13 12 13 12 12 13 13 12 11 9 9 9 9 10 11 12 12 12 12 13 14 17 19 20 21
29 30 33 42 29 39 21 20 20 23 23 24 24 22 21 20 18 16 14 13 12 12 12 12 12 13 13 12 11 10 11 11 10 11 13 14 14 14 15 16 18 21 21 22
30 33 45 47 37 26 22 22 22 22 22 24 26 24 22 21 21 20 16 14 13 12 12 12 12 13 14 13 12 12 12 12 11 11 13 15 15 15 16 17 18 21 22 22
29 31 45 45 50 41 21 21 20 20 23 21 23 26 28 25 24 23 20 17 14 13 12 12 12 13 13 13 13 13 12 13 13 11 13 15 17 17 17 18 19 21 22 23
38 41 44 44 49 35 23 21 21 25 24 21 23 25 27 30 30 26 22 21 19 16 13 12 11 12 12 12 12 13 13 12 13 13 12 15 17 18 19 19 20 21 22 23
39 44 47 44 50 44 24 24 25 24 22 22 23 26 28 29 29 33 32 26 23 20 18 16 14 13 12 12 12 12 12 12 13 15 14 13 15 18 19 20 21 22 23 24
42 39 45 41 36 28 27 26 22 22 22 24 25 26 28 30 30 31 33 37 31 27 23 21 18 17 16 14 12 11 11 12 12 14 15 14 14 16 18 20 21 23 24 25
37 36 40 38 34 31 31 30 29 28 27 27 28 28 28 28 29 30 33 36 39 34 30 27 23 21 19 18 16 13 11 12 12 12 14 16 15 15 16 18 21 22 25 26
44 42 41 39 36 34 32 31 32 31 29 30 31 31 30 30 30 32 32 34 36 39 37 32 29 26 23 21 19 16 13 12 12 12 12 14 15 16 16 17 18 20 23 26
44 44 45 40 36 34 34 33 31 32 31 32 33 33 33 32 31 33 34 34 35 37 40 39 34 30 27 25 23 19 16 13 12 12 11 12 13 14 15 17 18 20 21 24